| time (UTC) | temp F | wind direction | speed knots | gust knots | rain 1hr in | rain 24hr in | rain mn in | humidity % | barometer mb |
| 20260505124930 | 52 | 131 | 2.6 | 5.2 | 0.00 | 0.00 | 0.00 | 68 | 1007.8 |
| 20260505123919 | 52 | 97 | 2.6 | 4.3 | 0.00 | 0.00 | 0.00 | 69 | 1007.6 |
| 20260505123412 | 53 | 93 | 1.7 | 3.5 | 0.00 | 0.00 | 0.00 | 65 | 1007.5 |
| 20260505122906 | 53 | 82 | 0.9 | 4.3 | 0.00 | 0.00 | 0.00 | 64 | 1007.5 |
| 20260505122400 | 52 | 118 | 1.7 | 4.3 | 0.00 | 0.00 | 0.00 | 64 | 1007.4 |
| 20260505122114 | 53 | 64 | 0.9 | 2.6 | 0.00 | 0.00 | 0.00 | 64 | 1007.3 |
| 20260505121346 | 54 | 209 | 0.0 | 1.7 | 0.00 | 0.00 | 0.00 | 60 | 1007.2 |
| 20260505120840 | 54 | 89 | 0.0 | 0.9 | 0.00 | 0.00 | 0.00 | 61 | 1007.1 |
| 20260505120335 | 53 | 219 | 0.9 | 1.7 | 0.00 | 0.00 | 0.00 | 61 | 1007.1 |
| 20260505115828 | 53 | 219 | 0.9 | 2.6 | 0.00 | 0.00 | 0.00 | 60 | 1007.1 |
| 20260505115322 | 53 | 190 | 0.9 | 2.6 | 0.00 | 0.00 | 0.00 | 62 | 1006.9 |
| 20260505114816 | 53 | 127 | 1.7 | 4.3 | 0.00 | 0.00 | 0.00 | 63 | 1006.9 |
| 20260505114531 | 53 | 104 | 1.7 | 4.3 | 0.00 | 0.00 | 0.00 | 63 | 1006.8 |
| 20260505113804 | 54 | 120 | 0.9 | 1.7 | 0.00 | 0.00 | 0.00 | 60 | 1006.8 |
| 20260505113522 | 54 | 150 | 0.9 | 2.6 | 0.00 | 0.00 | 0.00 | 62 | 1006.7 |
| 20260505112752 | 54 | 86 | 1.7 | 4.3 | 0.00 | 0.00 | 0.00 | 61 | 1006.6 |
| 20260505112246 | 54 | 125 | 2.6 | 4.3 | 0.00 | 0.00 | 0.00 | 61 | 1006.5 |
| 20260505111740 | 55 | 57 | 1.7 | 4.3 | 0.00 | 0.00 | 0.00 | 61 | 1006.4 |
| 20260505111234 | 55 | 128 | 0.9 | 3.5 | 0.00 | 0.00 | 0.00 | 58 | 1006.3 |
| 20260505110728 | 55 | 142 | 0.0 | 3.5 | 0.00 | 0.00 | 0.00 | 57 | 1006.3 |
| 20260505110222 | 56 | 105 | 0.0 | 0.0 | 0.00 | 0.00 | 0.00 | 55 | 1006.1 |
| 20260505101629 | 56 | 233 | 0.9 | 1.7 | 0.00 | 0.00 | 0.00 | 53 | 1005.6 |
| 20260505101122 | 57 | 243 | 0.9 | 3.5 | 0.00 | 0.00 | 0.00 | 52 | 1005.5 |
| 20260505100616 | 58 | 239 | 1.7 | 4.3 | 0.00 | 0.00 | 0.00 | 51 | 1005.4 |
| 20260505100333 | 58 | 265 | 1.7 | 4.3 | 0.00 | 0.00 | 0.00 | 50 | 1005.3 |
| 20260505095604 | 59 | 321 | 0.9 | 1.7 | 0.00 | 0.00 | 0.00 | 53 | 1005.2 |
| 20260505095058 | 59 | 37 | 1.7 | 3.5 | 0.00 | 0.00 | 0.00 | 54 | 1005.1 |
| 20260505094813 | 59 | 64 | 2.6 | 4.3 | 0.00 | 0.00 | 0.00 | 53 | 1005.0 |
| 20260505094046 | 60 | 42 | 3.5 | 8.7 | 0.00 | 0.00 | 0.00 | 50 | 1005.0 |
| 20260505093541 | 61 | 13 | 7.0 | 11.3 | 0.00 | 0.00 | 0.00 | 46 | 1004.9 |
| 20260505093034 | 63 | 18 | 8.7 | 12.2 | 0.00 | 0.00 | 0.00 | 45 | 1004.8 |
| 20260505092746 | 64 | 72 | 7.8 | 12.2 | 0.00 | 0.00 | 0.00 | 41 | 1004.6 |
| 20260505092022 | 64 | 81 | 8.7 | 12.2 | 0.00 | 0.00 | 0.00 | 42 | 1004.6 |
| 20260505091516 | 64 | 90 | 9.6 | 13.9 | 0.00 | 0.00 | 0.00 | 41 | 1004.5 |
| 20260505091228 | 64 | 98 | 9.6 | 13.9 | 0.00 | 0.00 | 0.00 | 41 | 1004.4 |
| 20260505090504 | 64 | 84 | 8.7 | 13.9 | 0.00 | 0.00 | 0.00 | 43 | 1004.4 |
| 20260505085958 | 64 | 77 | 8.7 | 13.9 | 0.00 | 0.00 | 0.00 | 41 | 1004.5 |
| 20260505085452 | 64 | 93 | 9.6 | 13.9 | 0.00 | 0.00 | 0.00 | 42 | 1004.6 |
| 20260505084951 | 64 | 70 | 11.3 | 19.1 | 0.00 | 0.00 | 0.00 | 41 | 1004.5 |
| 20260505084451 | 65 | 63 | 11.3 | 19.1 | 0.00 | 0.00 | 0.00 | 41 | 1004.5 |
| 20260505084218 | 65 | 79 | 10.4 | 14.8 | 0.00 | 0.00 | 0.00 | 39 | 1004.4 |
| 20260505083451 | 65 | 84 | 9.6 | 14.8 | 0.00 | 0.00 | 0.00 | 39 | 1004.3 |
| 20260505082951 | 65 | 94 | 9.6 | 14.8 | 0.00 | 0.00 | 0.00 | 41 | 1004.3 |
| 20260505082451 | 66 | 82 | 9.6 | 15.6 | 0.00 | 0.00 | 0.00 | 39 | 1004.2 |
| 20260505082211 | 66 | 91 | 8.7 | 15.6 | 0.00 | 0.00 | 0.00 | 40 | 1004.1 |
| 20260505081451 | 65 | 77 | 8.7 | 13.9 | 0.00 | 0.00 | 0.00 | 39 | 1004.1 |
| 20260505080951 | 65 | 76 | 9.6 | 13.9 | 0.00 | 0.00 | 0.00 | 42 | 1004.0 |
| 20260505080452 | 65 | 71 | 8.7 | 13.9 | 0.00 | 0.00 | 0.00 | 40 | 1004.0 |
| 20260505080216 | 65 | 91 | 7.8 | 12.2 | 0.00 | 0.00 | 0.00 | 40 | 1004.0 |
| 20260505075451 | 65 | 91 | 7.8 | 12.2 | 0.00 | 0.00 | 0.00 | 41 | 1004.0 |
| 20260505074951 | 65 | 91 | 7.0 | 11.3 | 0.00 | 0.00 | 0.00 | 42 | 1003.9 |
| 20260505073949 | 66 | 97 | 7.8 | 12.2 | 0.00 | 0.00 | 0.00 | 39 | 1003.9 |
| 20260505073448 | 66 | 60 | 7.8 | 13.0 | 0.00 | 0.00 | 0.00 | 40 | 1003.9 |
| 20260505072949 | 66 | 88 | 8.7 | 13.9 | 0.00 | 0.00 | 0.00 | 38 | 1003.9 |
| 20260505072443 | 66 | 80 | 7.8 | 13.9 | 0.00 | 0.00 | 0.00 | 39 | 1003.8 |
| 20260505072158 | 67 | 110 | 7.0 | 11.3 | 0.00 | 0.00 | 0.00 | 38 | 1003.8 |
| 20260505071431 | 67 | 102 | 6.1 | 11.3 | 0.00 | 0.00 | 0.00 | 38 | 1003.7 |
| 20260505070925 | 67 | 108 | 5.2 | 10.4 | 0.00 | 0.00 | 0.00 | 37 | 1003.7 |
| 20260505070419 | 67 | 93 | 5.2 | 8.7 | 0.00 | 0.00 | 0.00 | 37 | 1003.5 |
| 20260505065913 | 67 | 124 | 5.2 | 12.2 | 0.00 | 0.00 | 0.00 | 37 | 1003.5 |
| 20260505065413 | 66 | 75 | 3.5 | 12.2 | 0.00 | 0.00 | 0.00 | 39 | 1003.5 |
| 20260505064913 | 66 | 91 | 3.5 | 6.1 | 0.00 | 0.00 | 0.00 | 39 | 1003.4 |
| 20260505064413 | 66 | 146 | 3.5 | 6.1 | 0.00 | 0.00 | 0.00 | 38 | 1003.4 |
| 20260505063913 | 66 | 165 | 2.6 | 6.1 | 0.00 | 0.00 | 0.00 | 38 | 1003.4 |
| 20260505063639 | 65 | 168 | 3.5 | 7.0 | 0.00 | 0.00 | 0.00 | 37 | 1003.3 |
| 20260505062913 | 65 | 139 | 2.6 | 7.0 | 0.00 | 0.00 | 0.00 | 39 | 1003.4 |
| 20260505062635 | 63 | 136 | 1.7 | 3.5 | 0.00 | 0.00 | 0.00 | 43 | 1003.4 |
| 20260505061913 | 63 | 265 | 1.7 | 4.3 | 0.00 | 0.00 | 0.00 | 43 | 1003.4 |
| 20260505061413 | 63 | 137 | 2.6 | 5.2 | 0.00 | 0.00 | 0.00 | 42 | 1003.3 |
| 20260505060912 | 65 | 246 | 3.5 | 5.2 | 0.00 | 0.00 | 0.00 | 41 | 1003.3 |
| 20260505060413 | 66 | 69 | 3.5 | 5.2 | 0.00 | 0.00 | 0.00 | 41 | 1003.2 |
| 20260505055912 | 66 | 111 | 2.6 | 4.3 | 0.00 | 0.00 | 0.00 | 40 | 1003.2 |
| 20260505055412 | 66 | 128 | 1.7 | 3.5 | 0.00 | 0.00 | 0.00 | 37 | 1003.2 |
| 20260505054913 | 66 | 333 | 0.9 | 3.5 | 0.00 | 0.00 | 0.00 | 37 | 1003.1 |
| 20260505054413 | 65 | 200 | 0.9 | 2.6 | 0.00 | 0.00 | 0.00 | 38 | 1003.2 |
| 20260505053913 | 64 | 206 | 1.7 | 2.6 | 0.00 | 0.00 | 0.00 | 38 | 1003.2 |
| 20260505052912 | 63 | 235 | 0.9 | 4.3 | 0.00 | 0.00 | 0.00 | 41 | 1003.2 |
| 20260505052413 | 63 | 205 | 1.7 | 4.3 | 0.00 | 0.00 | 0.00 | 44 | 1003.2 |
| 20260505051913 | 64 | 353 | 1.7 | 5.2 | 0.00 | 0.00 | 0.00 | 42 | 1003.2 |
| 20260505051640 | 64 | 155 | 0.0 | 5.2 | 0.00 | 0.00 | 0.00 | 38 | 1003.2 |
| 20260505050910 | 62 | 129 | 0.9 | 3.5 | 0.00 | 0.00 | 0.00 | 42 | 1003.2 |
| 20260505050635 | 63 | 24 | 0.9 | 4.3 | 0.00 | 0.00 | 0.00 | 43 | 1003.2 |
| 20260505041327 | 67 | 165 | 6.1 | 9.6 | 0.00 | 0.00 | 0.00 | 36 | 1003.0 |
| 20260505040821 | 67 | 140 | 3.5 | 7.0 | 0.00 | 0.00 | 0.00 | 36 | 1002.9 |
| 20260505040315 | 66 | 160 | 1.7 | 5.2 | 0.00 | 0.00 | 0.00 | 36 | 1003.0 |
| 20260505040034 | 66 | 164 | 0.0 | 2.6 | 0.00 | 0.00 | 0.00 | 37 | 1002.8 |
| 20260505035304 | 66 | 154 | 0.9 | 3.5 | 0.00 | 0.00 | 0.00 | 37 | 1002.8 |
| 20260505034758 | 66 | 182 | 0.9 | 3.5 | 0.00 | 0.00 | 0.00 | 37 | 1002.7 |
| 20260505034251 | 67 | 58 | 2.6 | 7.0 | 0.00 | 0.00 | 0.00 | 38 | 1002.8 |
| 20260505033745 | 69 | 246 | 3.5 | 7.0 | 0.00 | 0.00 | 0.00 | 33 | 1002.7 |
| 20260505033239 | 70 | 227 | 3.5 | 7.0 | 0.00 | 0.00 | 0.00 | 31 | 1002.6 |
| 20260505032733 | 71 | 250 | 1.7 | 7.0 | 0.00 | 0.00 | 0.00 | 30 | 1002.7 |
| 20260505032227 | 71 | 352 | 2.6 | 4.3 | 0.00 | 0.00 | 0.00 | 29 | 1002.7 |
| 20260505031721 | 70 | 102 | 2.6 | 7.8 | 0.00 | 0.00 | 0.00 | 31 | 1002.6 |
| 20260505031215 | 70 | 143 | 2.6 | 7.8 | 0.00 | 0.00 | 0.00 | 32 | 1002.6 |
| 20260505030203 | 71 | 277 | 5.2 | 10.4 | 0.00 | 0.00 | 0.00 | 30 | 1002.3 |
| 20260505025657 | 72 | 252 | 5.2 | 10.4 | 0.00 | 0.00 | 0.00 | 29 | 1002.2 |
| 20260505025151 | 71 | 260 | 4.3 | 10.4 | 0.00 | 0.00 | 0.00 | 31 | 1002.3 |
| 20260505024645 | 71 | 258 | 3.5 | 7.0 | 0.00 | 0.00 | 0.00 | 31 | 1002.2 |
| 20260505024138 | 73 | 278 | 4.3 | 8.7 | 0.00 | 0.00 | 0.00 | 30 | 1002.2 |
| 20260505023631 | 74 | 264 | 5.2 | 9.6 | 0.00 | 0.00 | 0.00 | 29 | 1002.2 |
| 20260505023349 | 74 | 288 | 5.2 | 10.4 | 0.00 | 0.00 | 0.00 | 28 | 1002.2 |
| 20260505022619 | 74 | 285 | 6.1 | 12.2 | 0.00 | 0.00 | 0.00 | 28 | 1002.2 |
| 20260505022113 | 75 | 322 | 7.0 | 12.2 | 0.00 | 0.00 | 0.00 | 28 | 1002.1 |
| 20260505021608 | 75 | 257 | 6.1 | 13.0 | 0.00 | 0.00 | 0.00 | 28 | 1002.2 |
| 20260505021101 | 76 | 287 | 7.8 | 16.5 | 0.00 | 0.00 | 0.00 | 28 | 1002.1 |
| 20260505020555 | 76 | 261 | 8.7 | 16.5 | 0.00 | 0.00 | 0.00 | 28 | 1002.1 |
| 20260505020049 | 77 | 319 | 8.7 | 13.9 | 0.00 | 0.00 | 0.00 | 26 | 1002.1 |
| 20260505015544 | 77 | 285 | 7.8 | 14.8 | 0.00 | 0.00 | 0.00 | 26 | 1002.1 |
| 20260505015038 | 77 | 278 | 9.6 | 14.8 | 0.00 | 0.00 | 0.00 | 25 | 1002.2 |
| 20260505014532 | 77 | 295 | 9.6 | 14.8 | 0.00 | 0.00 | 0.00 | 24 | 1002.2 |
| 20260505014026 | 78 | 297 | 10.4 | 14.8 | 0.00 | 0.00 | 0.00 | 24 | 1002.1 |
| 20260505013519 | 78 | 283 | 9.6 | 15.6 | 0.00 | 0.00 | 0.00 | 23 | 1002.1 |
| 20260505013013 | 78 | 307 | 9.6 | 16.5 | 0.00 | 0.00 | 0.00 | 23 | 1002.2 |
| 20260505012507 | 78 | 296 | 10.4 | 17.4 | 0.00 | 0.00 | 0.00 | 23 | 1002.2 |
| 20260505012001 | 78 | 240 | 10.4 | 17.4 | 0.00 | 0.00 | 0.00 | 22 | 1002.3 |
| 20260505011455 | 79 | 309 | 9.6 | 15.6 | 0.00 | 0.00 | 0.00 | 22 | 1002.3 |
| 20260505010949 | 78 | 286 | 10.4 | 15.6 | 0.00 | 0.00 | 0.00 | 22 | 1002.3 |
| 20260505010705 | 79 | 302 | 9.6 | 16.5 | 0.00 | 0.00 | 0.00 | 23 | 1002.6 |
| 20260505005937 | 79 | 290 | 9.6 | 16.5 | 0.00 | 0.00 | 0.00 | 22 | 1002.5 |
| 20260505005649 | 79 | 264 | 10.4 | 19.1 | 0.00 | 0.00 | 0.00 | 22 | 1002.6 |
| 20260505004925 | 79 | 295 | 11.3 | 19.1 | 0.00 | 0.00 | 0.00 | 22 | 1002.6 |
| 20260505004638 | 79 | 282 | 10.4 | 17.4 | 0.00 | 0.00 | 0.00 | 22 | 1002.6 |
| 20260505003912 | 79 | 284 | 10.4 | 17.4 | 0.00 | 0.00 | 0.00 | 23 | 1002.7 |
| 20260505003407 | 79 | 266 | 9.6 | 14.8 | 0.00 | 0.00 | 0.00 | 24 | 1002.8 |
| 20260505002901 | 79 | 281 | 8.7 | 14.8 | 0.00 | 0.00 | 0.00 | 24 | 1002.7 |
| 20260505002355 | 79 | 312 | 8.7 | 15.6 | 0.00 | 0.00 | 0.00 | 26 | 1002.8 |
| 20260505002110 | 79 | 301 | 10.4 | 15.6 | 0.00 | 0.00 | 0.00 | 23 | 1002.8 |
| 20260505001343 | 79 | 276 | 11.3 | 17.4 | 0.00 | 0.00 | 0.00 | 24 | 1002.8 |
| 20260505000841 | 79 | 290 | 10.4 | 17.4 | 0.00 | 0.00 | 0.00 | 24 | 1002.8 |
| 20260505000331 | 79 | 256 | 10.4 | 15.6 | 0.00 | 0.00 | 0.00 | 24 | 1002.8 |
| 20260504235825 | 79 | 258 | 10.4 | 15.6 | 0.00 | 0.00 | 0.00 | 26 | 1002.9 |
| 20260504235320 | 79 | 251 | 11.3 | 16.5 | 0.00 | 0.00 | 0.00 | 26 | 1002.9 |
| 20260504234814 | 79 | 283 | 11.3 | 16.5 | 0.00 | 0.00 | 0.00 | 26 | 1003.0 |
| 20260504234307 | 79 | 284 | 10.4 | 16.5 | 0.00 | 0.00 | 0.00 | 26 | 1003.0 |
| 20260504233802 | 80 | 271 | 9.6 | 16.5 | 0.00 | 0.00 | 0.00 | 26 | 1002.9 |
| 20260504233255 | 79 | 285 | 8.7 | 15.6 | 0.00 | 0.00 | 0.00 | 26 | 1003.0 |
| 20260504233011 | 79 | 285 | 9.6 | 16.5 | 0.00 | 0.00 | 0.00 | 27 | 1003.1 |
| 20260504232243 | 79 | 282 | 8.7 | 16.5 | 0.00 | 0.00 | 0.00 | 28 | 1003.1 |
| 20260504231737 | 80 | 290 | 8.7 | 15.6 | 0.00 | 0.00 | 0.00 | 27 | 1003.2 |
| 20260504231455 | 79 | 289 | 8.7 | 15.6 | 0.00 | 0.00 | 0.00 | 27 | 1003.3 |
| 20260504230948 | 80 | 245 | 7.8 | 14.8 | 0.00 | 0.00 | 0.00 | 27 | 1003.3 |
| 20260504230220 | 80 | 290 | 7.8 | 14.8 | 0.00 | 0.00 | 0.00 | 27 | 1003.3 |
| 20260504225713 | 79 | 268 | 7.8 | 13.0 | 0.00 | 0.00 | 0.00 | 28 | 1003.4 |
| 20260504225432 | 79 | 293 | 7.0 | 13.0 | 0.00 | 0.00 | 0.00 | 27 | 1003.5 |
| 20260504224702 | 79 | 294 | 7.0 | 13.9 | 0.00 | 0.00 | 0.00 | 29 | 1003.7 |
| 20260504224421 | 78 | 292 | 8.7 | 14.8 | 0.00 | 0.00 | 0.00 | 28 | 1003.7 |
| 20260504223702 | 78 | 280 | 7.8 | 15.6 | 0.00 | 0.00 | 0.00 | 28 | 1003.8 |
| 20260504223200 | 79 | 281 | 7.8 | 15.6 | 0.00 | 0.00 | 0.00 | 28 | 1003.8 |
| 20260504222657 | 78 | 285 | 7.0 | 13.9 | 0.00 | 0.00 | 0.00 | 29 | 1004.0 |
| 20260504222157 | 78 | 272 | 7.0 | 13.0 | 0.00 | 0.00 | 0.00 | 28 | 1004.0 |
| 20260504221916 | 78 | 229 | 7.8 | 13.0 | 0.00 | 0.00 | 0.00 | 29 | 1004.2 |
| 20260504221159 | 78 | 288 | 7.8 | 13.0 | 0.00 | 0.00 | 0.00 | 29 | 1004.2 |
| 20260504220658 | 78 | 268 | 7.0 | 12.2 | 0.00 | 0.00 | 0.00 | 30 | 1004.2 |
| 20260504220158 | 78 | 274 | 6.1 | 12.2 | 0.00 | 0.00 | 0.00 | 30 | 1004.4 |
| 20260504215658 | 78 | 288 | 6.1 | 11.3 | 0.00 | 0.00 | 0.00 | 31 | 1004.4 |
| 20260504215158 | 78 | 229 | 7.8 | 13.9 | 0.00 | 0.00 | 0.00 | 31 | 1004.5 |
| 20260504214659 | 77 | 293 | 7.0 | 13.9 | 0.00 | 0.00 | 0.00 | 29 | 1004.5 |
| 20260504214200 | 77 | 258 | 6.1 | 11.3 | 0.00 | 0.00 | 0.00 | 33 | 1004.6 |
| 20260504213700 | 76 | 303 | 7.0 | 11.3 | 0.00 | 0.00 | 0.00 | 32 | 1004.8 |
| 20260504213200 | 77 | 269 | 7.8 | 12.2 | 0.00 | 0.00 | 0.00 | 31 | 1004.9 |
| 20260504212919 | 76 | 283 | 7.8 | 12.2 | 0.00 | 0.00 | 0.00 | 33 | 1005.0 |
| 20260504212154 | 76 | 296 | 7.8 | 13.0 | 0.00 | 0.00 | 0.00 | 32 | 1005.0 |
| 20260504211654 | 77 | 243 | 7.8 | 13.0 | 0.00 | 0.00 | 0.00 | 33 | 1005.1 |
| 20260504211419 | 77 | 340 | 7.0 | 11.3 | 0.00 | 0.00 | 0.00 | 32 | 1005.2 |
| 20260504210654 | 77 | 284 | 7.8 | 13.0 | 0.00 | 0.00 | 0.00 | 32 | 1005.2 |
| 20260504210426 | 76 | 253 | 7.8 | 13.0 | 0.00 | 0.00 | 0.00 | 32 | 1005.2 |
| 20260504205654 | 76 | 279 | 7.8 | 13.0 | 0.00 | 0.00 | 0.00 | 33 | 1005.3 |
| 20260504205154 | 76 | 269 | 7.8 | 13.0 | 0.00 | 0.00 | 0.00 | 32 | 1005.4 |
| 20260504204654 | 76 | 218 | 7.0 | 13.0 | 0.00 | 0.00 | 0.00 | 32 | 1005.4 |
| 20260504204154 | 76 | 263 | 7.0 | 13.0 | 0.00 | 0.00 | 0.00 | 33 | 1005.5 |
| 20260504203154 | 75 | 269 | 7.0 | 12.2 | 0.00 | 0.00 | 0.00 | 33 | 1005.7 |
| 20260504202654 | 76 | 311 | 7.0 | 12.2 | 0.00 | 0.00 | 0.00 | 33 | 1005.6 |
| 20260504202414 | 75 | 271 | 7.8 | 14.8 | 0.00 | 0.00 | 0.00 | 33 | 1005.7 |
| 20260504201653 | 75 | 250 | 7.0 | 14.8 | 0.00 | 0.00 | 0.00 | 33 | 1005.7 |
| 20260504201154 | 75 | 295 | 7.0 | 13.0 | 0.00 | 0.00 | 0.00 | 35 | 1005.8 |
| 20260504200654 | 75 | 248 | 7.8 | 13.0 | 0.00 | 0.00 | 0.00 | 32 | 1006.0 |
| 20260504200154 | 75 | 265 | 7.0 | 13.0 | 0.00 | 0.00 | 0.00 | 32 | 1006.0 |
| 20260504195654 | 75 | 283 | 7.0 | 11.3 | 0.00 | 0.00 | 0.00 | 34 | 1006.1 |
| 20260504195154 | 75 | 238 | 7.0 | 11.3 | 0.00 | 0.00 | 0.00 | 34 | 1006.2 |
| 20260504194654 | 74 | 273 | 7.0 | 11.3 | 0.00 | 0.00 | 0.00 | 34 | 1006.3 |
| 20260504194154 | 74 | 348 | 7.0 | 11.3 | 0.00 | 0.00 | 0.00 | 35 | 1006.3 |
| 20260504193916 | 73 | 277 | 7.8 | 11.3 | 0.00 | 0.00 | 0.00 | 35 | 1006.3 |
| 20260504193154 | 73 | 267 | 7.0 | 11.3 | 0.00 | 0.00 | 0.00 | 35 | 1006.4 |
| 20260504192653 | 73 | 291 | 6.1 | 11.3 | 0.00 | 0.00 | 0.00 | 36 | 1006.5 |
| 20260504192154 | 73 | 297 | 5.2 | 11.3 | 0.00 | 0.00 | 0.00 | 37 | 1006.5 |
| 20260504191654 | 73 | 277 | 5.2 | 9.6 | 0.00 | 0.00 | 0.00 | 37 | 1006.5 |
| 20260504191153 | 72 | 240 | 5.2 | 9.6 | 0.00 | 0.00 | 0.00 | 39 | 1006.6 |
| 20260504190646 | 71 | 285 | 5.2 | 10.4 | 0.00 | 0.00 | 0.00 | 39 | 1006.7 |
| 20260504185637 | 70 | 323 | 7.0 | 12.2 | 0.00 | 0.00 | 0.00 | 39 | 1006.9 |
| 20260504185138 | 70 | 281 | 5.2 | 12.2 | 0.00 | 0.00 | 0.00 | 40 | 1006.9 |
| 20260504184638 | 70 | 285 | 4.3 | 7.8 | 0.00 | 0.00 | 0.00 | 39 | 1006.9 |
| 20260504184138 | 70 | 306 | 5.2 | 8.7 | 0.00 | 0.00 | 0.00 | 40 | 1007.1 |
| 20260504183636 | 70 | 306 | 5.2 | 8.7 | 0.00 | 0.00 | 0.00 | 40 | 1007.1 |
| 20260504183353 | 71 | 292 | 5.2 | 9.6 | 0.00 | 0.00 | 0.00 | 39 | 1007.1 |
| 20260504182858 | 70 | 284 | 4.3 | 9.6 | 0.00 | 0.00 | 0.00 | 40 | 1007.2 |
| 20260504182133 | 69 | 289 | 4.3 | 7.8 | 0.00 | 0.00 | 0.00 | 41 | 1007.3 |
| 20260504181634 | 69 | 307 | 4.3 | 7.8 | 0.00 | 0.00 | 0.00 | 41 | 1007.4 |
| 20260504181133 | 68 | 283 | 3.5 | 8.7 | 0.00 | 0.00 | 0.00 | 42 | 1007.4 |
| 20260504180632 | 68 | 289 | 4.3 | 8.7 | 0.00 | 0.00 | 0.00 | 42 | 1007.5 |
| 20260504180403 | 68 | 297 | 4.3 | 7.8 | 0.00 | 0.00 | 0.00 | 40 | 1007.4 |
| 20260504175631 | 68 | 293 | 4.3 | 9.6 | 0.00 | 0.00 | 0.00 | 41 | 1007.5 |
| 20260504175132 | 67 | 296 | 5.2 | 9.6 | 0.00 | 0.00 | 0.00 | 41 | 1007.6 |
| 20260504174631 | 68 | 273 | 4.3 | 7.8 | 0.00 | 0.00 | 0.00 | 40 | 1007.5 |
| 20260504173630 | 68 | 287 | 3.5 | 7.0 | 0.00 | 0.00 | 0.00 | 42 | 1007.6 |
| 20260504173125 | 68 | 300 | 2.6 | 5.2 | 0.00 | 0.00 | 0.00 | 42 | 1007.6 |
| 20260504172619 | 67 | 268 | 1.7 | 4.3 | 0.00 | 0.00 | 0.00 | 43 | 1007.6 |
| 20260504172113 | 67 | 288 | 1.7 | 4.3 | 0.00 | 0.00 | 0.00 | 39 | 1007.6 |
| 20260504171607 | 67 | 300 | 1.7 | 4.3 | 0.00 | 0.00 | 0.00 | 41 | 1007.7 |
| 20260504171101 | 66 | 237 | 2.6 | 5.2 | 0.00 | 0.00 | 0.00 | 43 | 1007.7 |
| 20260504170819 | 66 | 264 | 2.6 | 5.2 | 0.00 | 0.00 | 0.00 | 41 | 1007.7 |
| 20260504150835 | 55 | 87 | 10.4 | 15.6 | 0.00 | 0.00 | 0.00 | 58 | 1007.9 |
| 20260504150329 | 55 | 73 | 11.3 | 16.5 | 0.00 | 0.00 | 0.00 | 57 | 1007.9 |
| 20260504140723 | 54 | 94 | 11.3 | 16.5 | 0.00 | 0.00 | 0.00 | 53 | 1007.9 |
| 20260504140217 | 54 | 97 | 10.4 | 14.8 | 0.00 | 0.00 | 0.00 | 54 | 1007.8 |